Weather History for Durant, OK

Change the Weather History Date:

Monday, September 16, 2013

  Actual Average (KADM) Record (KADM)
Temperature  
Mean Temperature 82 °F -  
Max Temperature 96 °F 83 °F 98 °F (1997)
Min Temperature 69 °F 63 °F 46 °F (2008)
Cooling Degree Days 18    
Growing Degree Days 32 (Base 50)    
Moisture  
Dew Point 62 °F    
Average Humidity 50    
Maximum Humidity 78    
Minimum Humidity 30    
Precipitation  
Precipitation 0.00 in - - ()
Sea Level Pressure  
Sea Level Pressure 30.06 in    
Wind  
Wind Speed 5 mph (East)    
Max Wind Speed 14 mph    
Max Gust Speed 18 mph    
Visibility 10 miles    
Events      
Averages and records for this station are not official NWS values.
T = Trace of Precipitation, MM = Missing Value Source: NWS Daily Summary

Daily Weather History Graph

Daily Weather History Graph

Search for Another Location

Airport:

Trip Planner

Search our weather history database for the weather conditions in past years. The results will help you decide how hot, cold, wet, or windy it might be!

Date:

Astronomy

Sep. 16, 2013 Rise Set
Actual Time 7:09 AM CDT 7:30 PM CDT
Civil Twilight 6:44 AM CDT 7:55 PM CDT
Nautical Twilight 6:15 AM CDT 8:24 PM CDT
Astronomical Twilight 5:45 AM CDT 8:54 PM CDT
Moon 5:34 PM CDT (9/16) 4:03 AM CDT (9/16)
Length of Visible Light 13h 10m
Length of Day
12h 20m
Waxing Gibbous, 90% of the Moon is Illuminated
Sep 16
Waxing Gibbous
Sep 19
Full
Sep 26
Last Quarter
Oct 4
New
Oct 11
First Quarter

Hourly Weather History & Observations

Time (CDT) Temp. Heat Index Dew Point Humidity Pressure Visibility Wind Dir Wind Speed Gust Speed Precip Events Conditions
12:15 AM 78.8 °F - 64.4 °F 61% 30.05 in 10.0 mi SE 4.6 mph - N/A   Clear
12:35 AM 77.0 °F - 64.4 °F 65% 30.06 in 10.0 mi SE 3.5 mph - N/A   Clear
12:55 AM 77.0 °F - 64.4 °F 65% 30.06 in 10.0 mi SE 3.5 mph - N/A   Clear
1:15 AM 77.0 °F - 64.4 °F 65% 30.06 in 10.0 mi Calm Calm - N/A   Clear
1:35 AM 77.0 °F - 64.4 °F 65% 30.06 in 10.0 mi SSE 3.5 mph - N/A   Clear
1:55 AM 77.0 °F - 64.4 °F 65% 30.05 in 10.0 mi SSE 3.5 mph - N/A   Clear
2:15 AM 75.2 °F - 64.4 °F 69% 30.05 in 10.0 mi SSE 3.5 mph - N/A   Clear
2:35 AM 75.2 °F - 64.4 °F 69% 30.05 in 10.0 mi SE 3.5 mph - N/A   Clear
2:55 AM 75.2 °F - 62.6 °F 65% 30.05 in 10.0 mi South 3.5 mph - N/A   Clear
3:15 AM 73.4 °F - 62.6 °F 69% 30.05 in 10.0 mi South 3.5 mph - N/A   Clear
3:35 AM 73.4 °F - 62.6 °F 69% 30.05 in 10.0 mi Calm Calm - N/A   Clear
3:55 AM 73.4 °F - 62.6 °F 69% 30.05 in 10.0 mi SSE 3.5 mph - N/A   Clear
4:15 AM 73.4 °F - 62.6 °F 69% 30.05 in 10.0 mi SE 3.5 mph - N/A   Clear
4:35 AM 73.4 °F - 62.6 °F 69% 30.05 in 10.0 mi SSE 3.5 mph - N/A   Clear
4:55 AM 73.4 °F - 62.6 °F 69% 30.05 in 10.0 mi SSE 3.5 mph - N/A   Clear
5:15 AM 73.4 °F - 62.6 °F 69% 30.06 in 10.0 mi Calm Calm - N/A   Clear
5:35 AM 73.4 °F - 62.6 °F 69% 30.06 in 10.0 mi SE 3.5 mph - N/A   Clear
5:55 AM 71.6 °F - 62.6 °F 73% 30.06 in 10.0 mi Calm Calm - N/A   Clear
6:15 AM 71.6 °F - 62.6 °F 73% 30.07 in 10.0 mi Calm Calm - N/A   Clear
6:35 AM 71.6 °F - 62.6 °F 73% 30.07 in 10.0 mi ENE 3.5 mph - N/A   Clear
6:55 AM 71.6 °F - 62.6 °F 73% 30.08 in 10.0 mi Calm Calm - N/A   Clear
7:15 AM 71.6 °F - 62.6 °F 73% 30.09 in 10.0 mi NE 3.5 mph - N/A   Clear
7:35 AM 69.8 °F - 62.6 °F 78% 30.10 in 10.0 mi NE 4.6 mph - N/A   Clear
7:55 AM 71.6 °F - 62.6 °F 73% 30.10 in 10.0 mi East 3.5 mph - N/A   Clear
8:15 AM 73.4 °F - 62.6 °F 69% 30.11 in 10.0 mi East 4.6 mph - N/A   Clear
8:35 AM 77.0 °F - 62.6 °F 61% 30.11 in 10.0 mi East 5.8 mph - N/A   Clear
8:55 AM 78.8 °F - 62.6 °F 57% 30.11 in 10.0 mi SE 3.5 mph - N/A   Clear
9:15 AM 80.6 °F 81.8 °F 62.6 °F 54% 30.11 in 10.0 mi Calm Calm - N/A   Clear
9:35 AM 82.4 °F 83.4 °F 62.6 °F 51% 30.11 in 10.0 mi Calm Calm - N/A   Clear
9:55 AM 86.0 °F 86.6 °F 62.6 °F 45% 30.12 in 10.0 mi Calm Calm - N/A   Clear
10:15 AM 87.8 °F 89.4 °F 64.4 °F 46% 30.12 in 10.0 mi Calm Calm - N/A   Clear
10:35 AM 87.8 °F 89.4 °F 64.4 °F 46% 30.12 in 10.0 mi Calm Calm - N/A   Clear
10:55 AM 89.6 °F 91.1 °F 64.4 °F 43% 30.12 in 10.0 mi Calm Calm - N/A   Scattered Clouds
11:15 AM 91.4 °F 93.2 °F 64.4 °F 41% 30.12 in 10.0 mi NNW 4.6 mph - N/A   Mostly Cloudy
11:35 AM 89.6 °F 91.1 °F 64.4 °F 43% 30.12 in 10.0 mi NNW 3.5 mph - N/A   Mostly Cloudy
11:55 AM 91.4 °F 93.2 °F 64.4 °F 41% 30.12 in 10.0 mi NNE 5.8 mph - N/A   Scattered Clouds
12:15 PM 91.4 °F 92.1 °F 62.6 °F 38% 30.12 in 10.0 mi NNW 6.9 mph - N/A   Clear
12:35 PM 93.2 °F 94.1 °F 62.6 °F 36% 30.12 in 10.0 mi NNW 8.1 mph - N/A   Clear
12:55 PM 93.2 °F 94.1 °F 62.6 °F 36% 30.11 in 10.0 mi ENE 8.1 mph - N/A   Clear
1:15 PM 95.0 °F 96.0 °F 62.6 °F 34% 30.11 in 10.0 mi NNW 5.8 mph - N/A   Clear
1:35 PM 95.0 °F 96.0 °F 62.6 °F 34% 30.09 in 10.0 mi NNW 3.5 mph - N/A   Clear
1:55 PM 95.0 °F 96.0 °F 62.6 °F 34% 30.08 in 10.0 mi NE 6.9 mph - N/A   Clear
2:15 PM 95.0 °F 96.0 °F 62.6 °F 34% 30.07 in 10.0 mi ENE 6.9 mph - N/A   Scattered Clouds
2:35 PM 95.0 °F 95.2 °F 60.8 °F 32% 30.06 in 10.0 mi East 10.4 mph 17.3 mph N/A   Scattered Clouds
2:55 PM 96.8 °F 97.1 °F 60.8 °F 30% 30.05 in 10.0 mi NNE 8.1 mph 18.4 mph N/A   Clear
3:15 PM 95.0 °F 95.2 °F 60.8 °F 32% 30.04 in 10.0 mi ENE 11.5 mph 17.3 mph N/A   Clear
3:35 PM 96.8 °F 97.1 °F 60.8 °F 30% 30.04 in 10.0 mi East 9.2 mph 17.3 mph N/A   Scattered Clouds
3:55 PM 95.0 °F 95.2 °F 60.8 °F 32% 30.03 in 10.0 mi East 13.8 mph 18.4 mph N/A   Scattered Clouds
4:15 PM 96.8 °F 97.1 °F 60.8 °F 30% 30.02 in 10.0 mi East 9.2 mph 16.1 mph N/A   Scattered Clouds
4:35 PM 95.0 °F 95.2 °F 60.8 °F 32% 30.01 in 10.0 mi East 10.4 mph - N/A   Scattered Clouds
4:55 PM 95.0 °F 95.2 °F 60.8 °F 32% 30.01 in 10.0 mi East 8.1 mph - N/A   Clear
5:15 PM 95.0 °F 95.2 °F 60.8 °F 32% 30.00 in 10.0 mi East 11.5 mph 16.1 mph N/A   Clear
5:35 PM 95.0 °F 95.2 °F 60.8 °F 32% 30.00 in 10.0 mi East 11.5 mph - N/A   Clear
5:55 PM 95.0 °F 95.2 °F 60.8 °F 32% 30.00 in 10.0 mi East 11.5 mph 16.1 mph N/A   Scattered Clouds
6:15 PM 93.2 °F 92.6 °F 59.0 °F 32% 30.00 in 10.0 mi East 10.4 mph - N/A   Scattered Clouds
6:35 PM 91.4 °F 90.7 °F 59.0 °F 34% 30.00 in 10.0 mi East 11.5 mph - N/A   Scattered Clouds
6:55 PM 91.4 °F 91.4 °F 60.8 °F 36% 30.01 in 10.0 mi East 10.4 mph - N/A   Scattered Clouds
7:15 PM 89.6 °F 89.5 °F 60.8 °F 38% 30.02 in 10.0 mi East 6.9 mph - N/A   Scattered Clouds
7:35 PM 89.6 °F 89.5 °F 60.8 °F 38% 30.03 in 10.0 mi East 6.9 mph - N/A   Scattered Clouds
7:55 PM 87.8 °F 87.6 °F 60.8 °F 40% 30.03 in 10.0 mi East 6.9 mph - N/A   Mostly Cloudy
8:15 PM 87.8 °F 87.6 °F 60.8 °F 40% 30.04 in 10.0 mi East 6.9 mph - N/A   Overcast
8:35 PM 87.8 °F 87.6 °F 60.8 °F 40% 30.05 in 10.0 mi ENE 5.8 mph - N/A   Overcast
8:55 PM 86.0 °F 86.1 °F 60.8 °F 43% 30.05 in 10.0 mi East 8.1 mph - N/A   Mostly Cloudy
9:15 PM 86.0 °F 86.1 °F 60.8 °F 43% 30.05 in 10.0 mi East 6.9 mph - N/A   Scattered Clouds
9:35 PM 86.0 °F 86.1 °F 60.8 °F 43% 30.05 in 10.0 mi East 8.1 mph - N/A   Scattered Clouds
9:55 PM 86.0 °F 86.1 °F 60.8 °F 43% 30.06 in 10.0 mi East 8.1 mph - N/A   Clear
10:15 PM 86.0 °F 86.1 °F 60.8 °F 43% 30.07 in 10.0 mi East 6.9 mph - N/A   Scattered Clouds
10:35 PM 84.2 °F 84.4 °F 60.8 °F 45% 30.07 in 10.0 mi East 6.9 mph - N/A   Scattered Clouds
10:55 PM 84.2 °F 84.4 °F 60.8 °F 45% 30.07 in 10.0 mi East 6.9 mph - N/A   Mostly Cloudy
11:15 PM 82.4 °F 82.9 °F 60.8 °F 48% 30.07 in 10.0 mi East 6.9 mph - N/A   Mostly Cloudy
11:35 PM 82.4 °F 83.4 °F 62.6 °F 51% 30.07 in 10.0 mi East 5.8 mph - N/A   Scattered Clouds
11:55 PM 80.6 °F 81.8 °F 62.6 °F 54% 30.07 in 10.0 mi East 6.9 mph - N/A   Clear